RJOP  Komatsujima Ab Airport

Add Bookmark

Komatsujima AB, Japan

Status
Operational
Latitude Longitude
34° 0' 0" N 134° 37' 48" E
34.000000 134.630005
Local (DST + 9) UTC (GMT + 9)
Feb 2, 2015 04:39 Feb 1, 2015 19:39
Sunrise-Sunset Local UTC
Begin Civil Twilight 06:30 21:30
Sunrise 06:56 21:56
Sunset 05:33 08:33
End Civil Twilight 05:59 08:59

Current Weather

METAR Observed VFR
RJOP 011747Z 30015G25KT 9999 FEW030 04/M04 Q1027 Sun, Feb 1, 2015 @ 17:47 UTC
(1 Hour, 52 Minutes ago)
Visual Flight Rules
Wind Visibility Clouds Conditions
300° at 15 knots (28 kph)
Gusting to 25 knots (46 kph)
10 km or more
  • Few at 3,000' AGL
  • No significant weather
Temperatures Readings Precipitation
Current Temp 4°C (39°F)
Dewpoint -4°C (25°F)
Humidity 56%
Altimeter 30.32"Hg
Sea Level Pressure 1027mb
Field Elevation 19.69'
None Recorded

Additional weather within a 92.6km radius of RJOP

Map ICAO Location
RJOS 14.8km N (360°)
RJOT 61.3km W (293°)
RJBB 73.7km N (050°)
RJBD 77.4km E (119°)
RJBE 88.9km N (038°)

24 Hour Weather History

Loading
-

24 Hour Weather Graphs

Loading
-

CheckWX.com is intended as a tool to help pilots better visualize weather data. It is not intended as a substitute for an official weather briefing obtained from a Flight Service Station. CheckWX.com does not meet the FAA requirements for an official pre-flight weather briefing. Therefore, it's important that pilots still call and obtain an official FSS pre-flight weather briefing.